Terug naar catalogus

ARIANE 44L DEB

LostHEO
NORAD 27669·DEBRIS·🇫🇷 France

Gelanceerd Oct 29, 1991 vanaf Guiana Space Centre

Loading…

Volgende Passages (komende 24 uur)

TLE

VerouderdSource: Space-Track

Epoch: Jul 11, 2026, 04:27 UTC

1 27669U 91075E   26192.18585096  .00681942  00000-0  14970-1 0  9996
2 27669   7.8944 102.4007 4543805 101.4984 311.2887  6.53694019342714

Volg ARIANE 44L DEB in realtime met AllMySat

Download on the App Store